This is the latest recevied weather packets stored in our database for station/object KB1WCR. If no packets are shown the sender has not sent any weather packets the latest 10 day(s).
| Time | Temp. | Humidity | Pressure | Rain* | Wind** | Luminosity | Snow |
|---|---|---|---|---|---|---|---|
| 1787658461 | 16.67° C | 99% | 1013.3 hPa | 0 mm | - | 95 W/m² | - |
| 1787658158 | 16.67° C | 99% | 1013.2 hPa | 0 mm | - | 88 W/m² | - |
| 1787657853 | 16.11° C | 99% | 1013.3 hPa | 0 mm | - | 81 W/m² | - |
| 1787657552 | 15.56° C | 99% | 1013.4 hPa | 0 mm | - | 75 W/m² | - |
| 1787657247 | 15.56° C | 99% | 1013.3 hPa | 0 mm | - | 69 W/m² | - |
| 1787656943 | 15° C | 99% | 1013.3 hPa | 0 mm | - | 65 W/m² | - |
| 1787656640 | 15° C | 99% | 1013.5 hPa | 0 mm | - | 60 W/m² | - |
| 1787656335 | 14.44° C | 99% | 1013.5 hPa | 0 mm | - | 56 W/m² | - |
| 1787656030 | 14.44° C | 99% | 1013.3 hPa | 0 mm | - | 52 W/m² | - |
| 1787655727 | 13.89° C | 99% | 1013.3 hPa | 0 mm | - | 44 W/m² | - |
| 1787655424 | 13.33° C | 99% | 1013.3 hPa | 0 mm | - | 38 W/m² | - |
| 1787655124 | 13.33° C | 99% | 1013.1 hPa | 0 mm | - | 39 W/m² | - |
| 1787654815 | 12.78° C | 99% | 1013.3 hPa | 0 mm | - | 35 W/m² | - |
| 1787654510 | 12.78° C | 99% | 1013.1 hPa | 0 mm | - | 29 W/m² | - |
| 1787654205 | 12.22° C | 99% | 1013.3 hPa | 0 mm | - | 25 W/m² | - |
| 1787653900 | 12.22° C | 99% | 1013.2 hPa | 0 mm | - | 21 W/m² | - |
| 1787653595 | 12.22° C | 99% | 1013.2 hPa | 0 mm | - | 17 W/m² | - |
| 1787653291 | 11.67° C | 99% | 1013.3 hPa | 0 mm | - | 14 W/m² | - |
| 1787652985 | 11.67° C | 99% | 1013.3 hPa | 0 mm | - | 11 W/m² | - |
| 1787652680 | 11.67° C | 99% | 1013.2 hPa | 0 mm | - | 8 W/m² | - |
| 1787652375 | 11.67° C | 99% | 1013.2 hPa | 0 mm | - | 6 W/m² | - |
| 1787652070 | 12.22° C | 99% | 1013.2 hPa | 0 mm | - | 4 W/m² | - |
| 1787651768 | 12.22° C | 99% | 1013.4 hPa | 0 mm | - | 2 W/m² | - |
| 1787651463 | 11.67° C | 99% | 1013 hPa | 0 mm | - | 1 W/m² | - |
| 1787651153 | 12.22° C | 99% | 1012.8 hPa | 0 mm | - | 1 W/m² | - |
* Rain latest hour (hover to see other rain measurements)
** Current wind speed in m/s (hover to see current wind gust speed)